Regional Weather Roundup
Issued by NWS

Home | Current Version | Previous Version | Graphics & Text | Print | Product List | Glossary On
Versions: 1 2 3 4 5 6 7 8 9 10 11 12 13 14 15 16 17 18 19 20 21 22 23 24 25 26 27 28 29 30 31 32 33 34 35 36 37 38 39 40 41 42 43 44 45 46 47 48 49 50
151
ASUS43 KMKX 290511
RWRWI

WISCONSIN REGIONAL WEATHER ROUNDUP
NATIONAL WEATHER SERVICE MILWAUKEE/SULLIVAN WI
1200 AM CDT SAT JUL 29 2017

NOTE: "FAIR" INDICATES FEW OR NO CLOUDS BELOW 12,000 FEET WITH NO
SIGNIFICANT WEATHER AND/OR OBSTRUCTIONS TO VISIBILITY.

WIZ001-002-006>008-014>016-023>028-290600-
NORTHWEST WISCONSIN

CITY           SKY/WX    TMP DP  RH WIND       PRES   REMARKS
SUPERIOR ARPT  NOT AVBL
ASHLAND        CLEAR     54  53  97 CALM      30.11R
HAYWARD        CLEAR     59  57  93 CALM      30.12R
SIREN          CLEAR     62  59  91 CALM      30.10S
CUMBERLAND     CLEAR     59  57  94 CALM      30.11S
RICE LAKE      PTCLDY    60  58  95 CALM      30.12S
CHETEK         PTCLDY    60  59  97 CALM      30.10S
LADYSMITH      PTCLDY    62  60  93 CALM      30.13R
EAU CLAIRE     CLEAR     61  59  93 CALM      30.09R
MENOMONIE      CLEAR     64  60  85 CALM      30.10R
NEW RICHMOND   CLEAR     62  61  96 CALM      30.11R
OSCEOLA        CLEAR     63  63 100 CALM      30.13R
$$

WIZ003>005-009-010-017-018-290600-
NORTH CENTRAL WISCONSIN

CITY           SKY/WX    TMP DP  RH WIND       PRES   REMARKS
MANITOWISH WTR CLEAR     54  54 100 CALM      30.13S FOG
ARBOR VITAE    CLEAR     58  55  91 CALM      30.13S
WOODRUFF       CLEAR     58  55  91 CALM      30.13S
RHINELANDER    CLEAR     59  56  89 CALM      30.14S
EAGLE RIVER    CLEAR     54  54  99 CALM      30.14S
LAND O LAKES   CLEAR     52  52 100 CALM      30.16R
PHILLIPS       CLEAR     56  56  98 CALM      30.12S
TOMAHAWK         N/A     53  52  95 CALM      30.14R
MEDFORD        CLEAR     56  55  96 CALM      30.12S
MERRILL        CLEAR     55  55 100 CALM      30.13R
$$

WIZ029-030-035-036-043>047-290600-
CENTRAL WISCONSIN

CITY           SKY/WX    TMP DP  RH WIND       PRES   REMARKS
WAUSAU         CLEAR     62  58  86 E3        30.11R
MOSINEE        CLEAR     61  57  88 E5        30.13S
MARSHFIELD     CLEAR     63  56  78 CALM      30.11R
STEVENS POINT  CLEAR     58  57  96 CALM      30.13R
WAUPACA        CLEAR     61  59  94 CALM      30.12R
WAUTOMA        CLEAR     59  57  93 CALM      30.11R
WISC RAPIDS    CLEAR     60  57  89 CALM      30.12R
CAMP DOUGLAS   CLEAR     55  55 100 CALM      30.10R FOG
$$

WIZ011>013-019>022-031-037>040-048>050-290600-
NORTHEAST WISCONSIN

CITY           SKY/WX    TMP DP  RH WIND       PRES   REMARKS
ANTIGO         CLEAR     57  55  92 SE6       30.15R
SHAWANO        CLEAR     63  56  79 CALM      30.12R
OCONTO         CLEAR     56  55  97 CALM      30.11R
STURGEON BAY   NOT AVBL
GREEN BAY      CLEAR     59  58  96 CALM      30.10S
MANITOWOC      CLEAR     61  58  90 N6        30.10R
APPLETON       CLEAR     64  50  59 NE3       30.10R
CLINTONVILLE   CLEAR    N/A N/A N/A CALM      30.11S
OSHKOSH        CLEAR     68  53  58 E6        30.10R
$$

WIZ032>034-041-042-053>061-290600-
SOUTHWEST WISCONSIN

CITY           SKY/WX    TMP DP  RH WIND       PRES   REMARKS
LA CROSSE      CLEAR     67  61  81 CALM      30.09R
SPARTA         CLEAR     55  55  99 CALM      30.11R
VIROQUA        CLEAR     64  57  80 SE6       30.11R
BOSCOBEL       CLEAR     58  57  97 CALM      30.09R FOG
PRAIRIE DU CHI CLEAR     63  59  88 E3        30.08R
PLATTEVILLE    CLEAR     65  62  90 NE6       30.09R
$$

WIZ056-057-062-063-064-067-068-290600-
SOUTH CENTRAL WISCONSIN

CITY           SKY/WX    TMP DP  RH WIND       PRES   REMARKS
REEDSBURG      CLEAR     61  61 100 CALM      30.09S
BARABOO/DELLS  CLEAR     60  58  91 CALM      30.10R
LONE ROCK      PTCLDY    61  60  97 CALM      30.09R
MINERAL POINT  CLEAR     64  61  88 CALM      30.09S
MADISON        CLEAR     62  58  86 N3        30.09R
MIDDLETON      CLEAR     62  62 100 CALM      30.09S
WATERTOWN      CLEAR     61  57  87 N3        30.08R
MONROE         CLEAR     64  59  82 NE5       30.08S
JANESVILLE     CLEAR     64  55  72 N3        30.07R
$$

WIZ051-052-058>065-066-070>072-290600-
SOUTHEAST WISCONSIN

CITY           SKY/WX    TMP DP  RH WIND       PRES   REMARKS
MILWAUKEE      PTCLDY    68  63  84 N12       30.06R
WAUKESHA       CLEAR     61  54  77 NE7       30.09R
MILWAUKEE/TIMM CLEAR     61  54  77 N5        30.08R
RACINE         MOCLDY    68  64  87 N7        30.07R
KENOSHA        CLEAR     65  61  87 N7        30.06R
FOND DU LAC    CLEAR     63  52  67 N6        30.10R
SHEBOYGAN      CLEAR     62  60  93 N7        30.09R
WEST BEND      CLEAR     59  55  88 CALM      30.09R
JUNEAU         CLEAR     62  54  76 N5        30.10S
$$

LSZ147-162-290600-
LAKE SUPERIOR

STATION/POSITION TIME  TEMP    WIND        PRES    WAVE
                       AIR SEA DIR/SP/G            HT/PER
                 (UTC) (F)     (DEG/KT/KT) (MB)    (FT/S)
W MID LAKE BUOY  0450   62 58   80/  4/  4 1019.0S   0
DEVILS ISLAND    0400   67     130/  8/ 10 1018.9R
PORT WING        0246   67     130/  2/  7 1018.6
SAXON HARBOR     0440   60     190/  4/  6 1018.6S
$$

LMZ867-665-643>646-290600-
LAKE MICHIGAN

STATION/POSITION TIME  TEMP    WIND        PRES    WAVE
                       AIR SEA DIR/SP/G            HT/PER
                 (UTC) (F)     (DEG/KT/KT) (MB)    (FT/S)
CHAMBERS ISLAND  0440   67      60/  5/  7 1018.6S
S GREEN BAY BUOY 0500   70 72   70/  8/ 10 1019.1
N MID LAKE BUOY  0450   68 67   40/  6/  6 1019.7R   1
NORTHPORT PIER   0440   62      CALM  /  2 1019.0S
KEWAUNEE LAKESHO 0448   65      10/  1/  3 1018.3R
SHEBOYGAN LAKESH 0500   69      30/ 12/ 14 1018.4R
PORT WASHINGTON  0440   66     350/  5/ 11 1019.0S
MILWAUKEE LAKESH 0450   68      10/ 13/ 15   N/A
S MID LAKE BUOY  0450   70 72   70/ 17/ 21 1017.1R   4/ 6
KENOSHA   LAKESH 0500   69      20/ 14/ 18 1017.3
$$

TC  - TEMPERATURE IN CELSIUS
VSB - VISIBILITY IN STATUTE MILES
WCI - WIND CHILL INDEX
HX  - HEAT INDEX





USA.gov is the U.S. government's official web portal to all federal, state and local government web resources and services.